Location: Unspecified
(0.0000°N, 0.0000°E)
Time: 03:29:27
(UTC+00:00)

N. Korean satellite - Pass Details

Date: 01 October 2022
Orbit: 427 x 468 km, 97.3° (Epoch: 25 September)

Event Time Altitude Azimuth Distance (km) Brightness Sun altitude
Rises 05:01:38 0° 4° (N) 2,380 10.1 -12.0°
Reaches altitude 10° 05:03:39 10° 359° (N) 1,521 9.0 -11.5°
Maximum altitude 05:06:50 54° 281° (W) 532 6.4 -10.7°
Drops below altitude 10° 05:10:04 10° 203° (SSW) 1,545 8.9 -9.9°
Sets 05:12:08 0° 198° (SSW) 2,423 10.0 -9.4°
